Kansai, Japan

6:28 PM JST on July 21, 2017 (GMT +0900)
Kansai International

Weather History for RJBB - May, 2013

Change the Weather History Date:

Tuesday, May 14, 2013

  Actual Average Record
Temperature  
Mean Temperature 69 °F -  
Max Temperature 78 °F 75 °F 78 °F (2013)
Min Temperature 60 °F 62 °F 55 °F (2005)
Cooling Degree Days 4    
Growing Degree Days 19 (Base 50)    
Moisture  
Dew Point 55 °F    
Average Humidity 65    
Maximum Humidity 82    
Minimum Humidity 41    
Precipitation  
Precipitation 0.00 in - - ()
Sea Level Pressure  
Sea Level Pressure 29.93 in    
Wind  
Wind Speed 5 mph ()    
Max Wind Speed 16 mph    
Max Gust Speed -    
Visibility 6.2 miles    
Events      
Averages and records for this station are not official NWS values.
T = Trace of Precipitation, MM = Missing Value Source: Averaged Metar Reports

Daily Weather History Graph

Daily Weather History Graph

Search for Another Location

Airport or City:

Trip Planner

Search our weather history database for the weather conditions in past years. The results will help you decide how hot, cold, wet, or windy it might be!

Date:

Astronomy

May. 14, 2013 Rise Set
Actual Time 4:57 AM JST 6:53 PM JST
Civil Twilight 4:30 AM JST 7:21 PM JST
Nautical Twilight 3:56 AM JST 7:54 PM JST
Astronomical Twilight 3:20 AM JST 8:30 PM JST
Moon 8:04 AM JST (5/14) 10:17 PM JST (5/14)
Length of Visible Light 14h 51m
Length of Day
13h 55m
Waxing Crescent, 15% of the Moon is Illuminated
May 14
Waxing Crescent
May 18
First Quarter
May 25
Full
Jun 1
Last Quarter
Jun 9
New

Hourly Weather History & Observations

Time (JST) Temp. Dew Point Humidity Pressure Visibility Wind Dir Wind Speed Gust Speed Precip Events Conditions
12:00 AM 64.4 °F 55.4 °F 73% 29.98 in - East 1.2 mph - N/A   Clear
12:30 AM 64.4 °F 57.2 °F 77% 29.98 in - North 4.6 mph - N/A   Clear
1:00 AM 62.6 °F 57.2 °F 82% 29.98 in 6.2 mi NE 4.6 mph - N/A   Partly Cloudy
1:30 AM 62.6 °F 57.2 °F 82% 29.98 in 6.2 mi Variable 2.3 mph - N/A   Partly Cloudy
2:00 AM 60.8 °F 55.4 °F 82% 29.98 in 6.2 mi Variable 1.2 mph - N/A   Partly Cloudy
2:30 AM 62.6 °F 55.4 °F 77% 29.98 in 6.2 mi SE 3.5 mph - N/A   Partly Cloudy
3:00 AM 60.8 °F 55.4 °F 82% 29.98 in 6.2 mi SSE 4.6 mph - N/A   Partly Cloudy
3:30 AM 60.8 °F 53.6 °F 77% 29.98 in 6.2 mi SSE 4.6 mph - N/A   Partly Cloudy
4:00 AM 60.8 °F 53.6 °F 77% 29.95 in 6.2 mi SSE 3.5 mph - N/A   Partly Cloudy
4:30 AM 60.8 °F 51.8 °F 72% 29.98 in 6.2 mi Variable 2.3 mph - N/A   Partly Cloudy
5:30 AM 60.8 °F 53.6 °F 77% 29.98 in 6.2 mi ESE 2.3 mph - N/A   Partly Cloudy
6:00 AM 60.8 °F 51.8 °F 72% 29.98 in 6.2 mi SE 2.3 mph - N/A   Partly Cloudy
6:30 AM 62.6 °F 53.6 °F 72% 29.98 in 6.2 mi SSE 1.2 mph - N/A   Partly Cloudy
7:00 AM 62.6 °F 53.6 °F 72% 29.98 in 6.2 mi South 2.3 mph - N/A   Partly Cloudy
7:30 AM 64.4 °F 53.6 °F 68% 29.95 in 6.2 mi Variable 1.2 mph - N/A   Partly Cloudy
8:00 AM 64.4 °F 53.6 °F 68% 29.95 in - Variable 2.3 mph - N/A   Clear
8:30 AM 68.0 °F 55.4 °F 64% 29.95 in - SE 3.5 mph - N/A   Clear
9:00 AM 68.0 °F 55.4 °F 64% 29.95 in - SSE 3.5 mph - N/A   Clear
9:30 AM 69.8 °F 53.6 °F 56% 29.95 in - SE 3.5 mph - N/A   Clear
10:00 AM 71.6 °F 53.6 °F 53% 29.95 in - Variable 2.3 mph - N/A   Clear
10:30 AM 73.4 °F 55.4 °F 53% 29.95 in - North 4.6 mph - N/A   Clear
11:00 AM 73.4 °F 55.4 °F 53% 29.95 in - NW 5.8 mph - N/A   Clear
11:30 AM 75.2 °F 55.4 °F 50% 29.95 in - WNW 5.8 mph - N/A   Clear
12:00 PM 73.4 °F 53.6 °F 50% 29.95 in 6.2 mi West 6.9 mph - N/A   Partly Cloudy
12:30 PM 75.2 °F 53.6 °F 47% 29.92 in 6.2 mi West 6.9 mph - N/A   Partly Cloudy
1:00 PM 77.0 °F 51.8 °F 41% 29.92 in 6.2 mi West 5.8 mph - N/A   Partly Cloudy
1:30 PM 78.8 °F 53.6 °F 42% 29.89 in 6.2 mi WSW 6.9 mph - N/A   Partly Cloudy
2:00 PM 75.2 °F 53.6 °F 47% 29.92 in 6.2 mi WSW 8.1 mph - N/A   Partly Cloudy
2:30 PM 75.2 °F 55.4 °F 50% 29.89 in 6.2 mi WSW 10.4 mph - N/A   Partly Cloudy
3:00 PM 75.2 °F 55.4 °F 50% 29.89 in 6.2 mi West 13.8 mph - N/A   Partly Cloudy
3:30 PM 73.4 °F 55.4 °F 53% 29.89 in 6.2 mi WSW 13.8 mph - N/A   Partly Cloudy
4:00 PM 75.2 °F 53.6 °F 47% 29.89 in 6.2 mi WSW 16.1 mph - N/A   Partly Cloudy
4:30 PM 75.2 °F 55.4 °F 50% 29.89 in 6.2 mi WSW 15.0 mph - N/A   Partly Cloudy
5:00 PM 73.4 °F 55.4 °F 53% 29.89 in 6.2 mi WSW 15.0 mph - N/A   Partly Cloudy
5:30 PM 71.6 °F 55.4 °F 57% 29.89 in 6.2 mi WSW 16.1 mph - N/A   Partly Cloudy
6:00 PM 71.6 °F 55.4 °F 57% 29.86 in 6.2 mi SW 16.1 mph - N/A   Partly Cloudy
6:30 PM 69.8 °F 57.2 °F 64% 29.89 in 6.2 mi SW 16.1 mph - N/A   Partly Cloudy
7:00 PM 69.8 °F 57.2 °F 64% 29.89 in 6.2 mi SW 15.0 mph - N/A   Partly Cloudy
7:30 PM 69.8 °F 57.2 °F 64% 29.89 in 6.2 mi WSW 12.7 mph - N/A   Partly Cloudy
8:00 PM 68.0 °F 57.2 °F 68% 29.89 in - WSW 13.8 mph - N/A   Clear
8:30 PM 68.0 °F 59.0 °F 73% 29.89 in - SW 16.1 mph - N/A   Clear
9:00 PM 68.0 °F 59.0 °F 73% 29.92 in - SW 13.8 mph - N/A   Clear
9:30 PM 66.2 °F 59.0 °F 78% 29.92 in - SW 12.7 mph - N/A   Clear
10:00 PM 66.2 °F 59.0 °F 78% 29.92 in - SW 9.2 mph - N/A   Clear
10:30 PM 66.2 °F 59.0 °F 78% 29.92 in - SW 6.9 mph - N/A   Clear
11:00 PM 66.2 °F 57.2 °F 73% 29.92 in - SW 4.6 mph - N/A   Clear
11:30 PM 66.2 °F 57.2 °F 73% 29.92 in - Calm Calm - N/A   Clear